Date,TemperatureHighF,TemperatureAvgF,TemperatureLowF,DewpointHighF,DewpointAvgF,DewpointLowF,HumidityHigh,HumidityAvg,HumidityLow,PressureMaxIn,PressureMinIn,WindSpeedMaxMPH,WindSpeedAvgMPH,GustSpeedMaxMPH,PrecipitationSumIn
2013-1-1,39,26,15,18,11,8,78,57,33,30.38,30.07,7,1,0,0.00
2013-1-2,40,23,8,9,6,1,78,51,22,30.48,30.22,4,0,0,0.00
2013-1-3,40,24,15,11,6,2,67,48,27,30.51,30.30,6,1,0,0.00
2013-1-4,38,21,6,5,1,-3,67,45,22,30.59,30.26,2,0,0,0.00
2013-1-5,45,24,8,8,3,0,76,44,18,30.63,30.36,3,0,0,0.00
2013-1-6,44,25,8,8,4,0,70,45,20,30.64,30.16,3,0,0,0.00
2013-1-7,53,35,23,15,11,7,61,39,21,30.18,29.86,5,0,0,0.00
2013-1-8,52,33,17,16,11,7,73,45,17,30.25,29.93,6,1,0,0.00
2013-1-9,56,33,17,14,11,8,71,44,17,30.55,30.14,3,0,0,0.00
2013-1-10,48,31,18,13,11,8,65,44,23,30.16,29.71,3,0,0,0.00
2013-1-11,41,30,19,22,2,-12,73,34,15,30.00,29.59,10,2,0,0.00
2013-1-12,37,19,4,-2,-8,-16,59,34,14,30.20,29.93,3,0,0,0.00
2013-1-13,34,18,4,1,-5,-10,60,39,21,30.36,30.08,3,0,0,0.00
2013-1-14,29,20,10,21,8,-3,76,62,44,30.25,30.07,4,0,0,0.02
2013-1-15,27,16,2,3,-2,-5,74,49,28,30.58,30.24,7,1,0,0.00
2013-1-16,43,23,7,12,5,-2,71,48,26,30.71,30.40,2,0,0,0.00
2013-1-17,53,29,11,14,10,4,74,50,20,30.71,30.40,3,0,0,0.00
2013-1-18,56,31,14,17,11,-100,80,51,20,30.59,30.23,3,0,0,0.00
2013-1-19,57,34,20,18,14,11,71,50,18,30.50,30.21,2,0,0,0.00
2013-1-20,57,33,15,15,11,4,76,46,14,30.49,30.12,5,0,0,0.00
2013-1-21,57,35,13,15,10,4,71,40,16,30.48,30.15,5,0,0,0.00
2013-1-22,62,36,17,15,12,6,76,43,14,30.43,30.18,2,0,0,0.00
2013-1-23,62,36,16,14,9,7,68,39,12,30.49,30.22,3,0,0,0.00
2013-1-24,65,42,19,33,16,8,68,40,13,30.44,30.08,4,0,0,0.00
2013-1-25,61,45,32,37,32,25,80,61,41,30.20,30.02,1,0,0,0.00
2013-1-26,54,45,40,48,38,32,87,75,55,30.03,29.72,5,0,0,0.14
2013-1-27,63,48,37,41,36,30,88,66,29,29.92,29.70,6,1,0,0.00
2013-1-28,57,43,32,37,30,16,88,63,36,29.79,29.60,6,1,0,0.03
2013-1-29,38,33,27,20,12,0,63,42,22,30.02,29.65,15,3,0,0.00
2013-1-30,44,32,20,14,11,5,65,45,24,30.27,30.00,13,2,0,0.00
2013-1-31,56,36,18,21,16,12,80,51,19,30.43,30.17,6,0,0,0.00
2013-2-1,60,38,18,23,17,13,84,49,19,30.39,30.10,3,0,0,0.00
2013-2-2,60,41,23,21,18,14,73,44,18,30.42,30.18,3,0,0,0.00
2013-2-3,54,40,25,27,18,-100,71,46,21,30.25,29.89,2,-10,0,0.00
2013-2-4,61,46,30,27,22,16,77,43,18,30.07,29.84,10,0,0,0.00
2013-2-5,59,36,26,22,17,12,72,49,16,30.12,29.87,0,0,0,0.00
2013-2-6,64,43,22,25,18,14,71,42,21,30.05,29.72,5,0,0,0.00
2013-2-7,61,42,28,25,18,10,74,43,15,30.13,29.85,6,0,0,0.00
2013-2-8,60,43,29,21,18,14,66,40,22,30.09,29.66,8,1,0,0.00
2013-2-9,50,35,21,23,14,2,78,47,18,29.85,29.53,12,2,0,0.00
2013-2-10,46,33,19,21,12,6,73,46,21,30.01,29.81,6,0,0,0.00
2013-2-11,48,33,17,21,14,1,82,53,15,30.13,29.86,5,0,0,0.00
2013-2-12,44,33,24,20,10,3,63,41,18,30.22,29.89,9,2,0,0.00
2013-2-13,51,34,16,14,10,6,68,39,20,30.30,30.01,11,1,0,0.00
2013-2-14,55,39,22,18,14,12,68,40,19,30.21,29.97,11,1,0,0.00
2013-2-15,54,38,21,20,10,-2,75,38,10,30.39,30.15,10,1,0,0.00
2013-2-16,62,39,19,10,5,-4,63,30,8,30.50,30.10,3,0,0,0.00
2013-2-17,62,41,17,7,3,-1,52,26,9,30.15,29.62,4,1,0,0.00
2013-2-18,56,42,28,16,-4,-21,48,18,5,30.05,29.62,7,1,0,0.00
2013-2-19,62,41,18,33,6,-10,63,28,9,30.14,29.57,11,1,0,0.00
2013-2-20,53,43,34,34,27,14,77,56,23,29.57,29.34,8,1,0,0.00
2013-2-21,51,38,29,27,21,14,84,53,23,29.85,29.45,7,1,0,0.02
2013-2-22,45,34,25,21,17,8,70,52,24,30.06,29.83,8,0,0,0.00
2013-2-23,52,34,16,16,10,6,68,41,17,30.20,29.62,5,0,0,0.00
2013-2-24,44,36,30,23,12,0,76,41,19,29.87,29.57,14,3,0,0.00
2013-2-25,52,38,26,22,6,-3,72,31,12,30.11,29.85,8,2,0,0.00
2013-2-26,50,34,17,14,2,-12,70,30,10,30.07,29.78,22,3,0,0.00
2013-2-27,49,33,16,7,2,-6,59,29,13,30.38,30.03,3,0,0,0.00
2013-2-28,57,37,20,6,0,-8,47,24,7,30.42,30.17,7,1,0,0.00
2013-3-1,62,46,31,18,11,3,36,24,15,30.36,30.11,10,2,0,0.00
2013-3-2,70,47,26,22,18,15,64,36,14,30.41,30.04,3,0,0,0.00
2013-3-3,72,50,26,20,14,-1,73,32,6,30.08,29.64,8,1,0,0.00
2013-3-4,67,54,40,20,18,13,41,25,13,29.96,29.54,11,1,0,0.00
2013-3-5,64,46,31,20,15,6,61,33,10,30.27,29.95,3,0,0,0.00
2013-3-6,69,51,38,24,19,12,43,29,16,30.06,29.73,6,0,0,0.00
2013-3-7,74,53,32,19,15,10,53,25,11,30.00,29.66,2,0,0,0.00
2013-3-8,63,46,33,43,24,9,83,47,17,29.82,29.58,8,1,0,0.10
2013-3-9,50,41,32,32,22,14,73,50,25,29.92,29.61,7,1,0,0.00
2013-3-10,56,40,27,27,20,10,82,51,20,30.13,29.91,9,1,0,0.00
2013-3-11,67,46,25,18,14,5,65,35,9,30.19,29.89,7,1,0,0.00
2013-3-12,72,52,31,22,19,16,65,31,14,30.14,29.90,7,1,0,0.00
2013-3-13,74,52,31,24,20,14,68,33,13,30.29,30.02,5,0,0,0.00
2013-3-14,79,57,36,22,17,14,54,25,9,30.22,29.97,5,0,0,0.00
2013-3-15,83,56,34,23,16,9,60,27,6,30.13,29.69,3,0,0,0.00
2013-3-16,74,58,37,33,20,14,50,26,11,29.80,29.55,10,1,0,0.00
2013-3-17,73,54,36,35,19,-11,73,35,4,29.73,29.47,8,1,0,0.00
2013-3-18,71,52,30,15,7,-1,47,19,7,29.90,29.65,10,1,0,0.00
2013-3-19,66,49,37,17,10,1,43,23,11,30.07,29.80,10,1,0,0.00
2013-3-20,66,49,28,24,17,13,64,32,15,30.23,29.66,4,1,0,0.00
2013-3-21,75,60,45,30,18,-1,43,24,5,29.66,29.36,14,2,0,0.00
2013-3-22,69,52,30,25,11,2,56,23,8,29.73,29.45,9,2,0,0.00
2013-3-23,52,41,28,25,0,-18,58,22,7,30.09,29.47,17,4,0,0.00
2013-3-24,57,40,21,-2,-8,-17,25,14,8,30.21,29.83,7,2,0,0.00
2013-3-25,60,42,26,13,5,-4,43,24,12,30.21,29.96,11,1,0,0.00
2013-3-26,68,50,28,13,8,3,36,20,10,30.17,29.80,7,1,0,0.00
2013-3-27,76,57,37,15,11,5,39,19,7,29.94,29.73,5,0,0,0.00
2013-3-28,76,59,41,24,15,8,51,20,8,29.92,29.73,8,0,0,0.00
2013-3-29,78,60,40,25,18,14,48,23,9,30.01,29.78,7,0,0,0.00
2013-3-30,76,57,34,25,19,13,55,27,9,30.05,29.73,6,0,0,0.00
2013-3-31,77,60,44,37,27,23,51,31,14,29.88,29.67,3,0,0,0.00
2013-4-1,78,60,40,30,19,5,60,27,7,29.90,29.58,6,1,0,0.00
2013-4-2,71,56,40,22,16,0,43,22,6,29.78,29.55,11,1,0,0.00
2013-4-3,70,54,40,29,24,16,61,36,14,29.97,29.72,7,1,0,0.00
2013-4-4,77,55,33,28,21,11,71,33,8,30.11,29.84,3,0,0,0.00
2013-4-5,80,62,44,27,15,7,49,19,7,29.93,29.53,6,1,0,0.00
2013-4-6,80,63,44,25,20,13,48,21,9,29.77,29.51,6,1,0,0.00
2013-4-7,79,65,46,27,19,13,46,19,9,29.65,29.41,8,1,0,0.00
2013-4-8,79,64,45,27,20,10,45,20,7,29.47,29.02,13,2,0,0.00
2013-4-9,55,48,41,36,30,25,79,52,33,29.72,29.08,10,2,0,0.04
2013-4-10,51,43,33,35,24,17,80,51,29,29.91,29.70,8,1,0,0.01
2013-4-11,67,49,28,28,21,15,67,37,19,29.95,29.64,18,2,0,0.00
2013-4-12,72,58,41,32,27,21,66,34,15,29.77,29.57,5,1,0,0.00
2013-4-13,77,60,37,32,20,9,57,26,9,29.77,29.36,7,1,0,0.00
2013-4-14,80,67,54,24,20,16,28,18,9,29.43,29.24,10,2,0,0.00
2013-4-15,84,65,42,30,19,9,63,21,6,29.53,29.24,12,2,0,0.00
2013-4-16,83,66,45,24,16,5,42,17,5,29.57,29.27,8,2,0,0.00
2013-4-17,63,54,39,26,18,7,41,26,11,29.81,29.33,16,2,0,0.00
2013-4-18,52,42,30,16,4,-3,47,23,11,30.13,29.82,12,3,0,0.00
2013-4-19,68,47,25,13,5,1,50,21,7,30.33,29.84,5,0,0,0.00
2013-4-20,72,56,39,23,13,3,51,22,9,29.88,29.64,12,2,0,0.00
2013-4-21,78,57,34,24,16,-100,65,26,6,30.02,29.73,6,-10,0,0.00
2013-4-22,85,64,36,26,16,7,56,22,6,29.84,29.42,13,1,0,0.00
2013-4-23,72,59,44,29,15,-13,49,20,5,29.89,29.42,10,2,0,0.00
2013-4-24,73,51,30,29,18,13,56,31,11,30.13,29.83,5,1,0,0.00
2013-4-25,78,62,50,29,22,11,45,24,9,29.92,29.54,7,1,0,0.00
2013-4-26,79,62,42,31,21,1,64,27,5,29.90,29.72,8,1,0,0.00
2013-4-27,81,61,39,29,16,-7,62,25,4,30.06,29.76,5,0,0,0.00
2013-4-28,85,63,36,23,12,0,54,20,4,29.92,29.58,9,0,0,0.00
2013-4-29,90,66,39,30,18,13,65,22,7,29.72,29.38,6,0,0,0.00
2013-4-30,89,69,44,32,19,9,55,20,6,29.58,29.37,11,1,0,0.00
2013-5-1,86,69,50,26,14,-7,38,14,6,29.82,29.40,7,1,0,0.00
2013-5-2,65,52,38,27,18,11,56,29,12,30.29,29.86,7,1,0,0.00
2013-5-3,72,53,34,17,14,10,44,23,9,30.29,29.80,5,0,0,0.00
2013-5-4,81,61,38,19,12,6,43,18,7,29.86,29.59,5,1,0,0.00
2013-5-5,77,64,52,31,20,6,28,19,10,29.86,29.65,7,1,0,0.00
2013-5-6,74,63,54,38,26,16,41,25,16,29.75,29.63,9,1,0,0.00
2013-5-7,80,63,43,35,30,24,73,33,14,29.83,29.55,10,0,0,0.00
2013-5-8,75,61,44,37,26,16,71,32,11,29.80,29.60,6,1,0,0.00
2013-5-9,75,62,44,32,25,19,56,27,15,29.82,29.69,5,0,0,0.00
2013-5-10,73,60,46,45,36,31,65,43,23,30.04,29.79,3,0,0,0.02
2013-5-11,76,60,47,43,37,28,76,48,18,30.13,29.98,5,0,0,0.00
2013-5-12,84,62,40,38,33,28,76,41,13,30.20,29.85,3,0,0,0.00
2013-5-13,88,66,44,38,32,26,66,34,11,30.06,29.76,3,0,0,0.00
2013-5-14,89,68,45,46,31,22,62,30,10,29.90,29.57,7,0,0,0.00
2013-5-15,91,72,60,48,36,19,59,32,10,29.69,29.43,6,0,0,0.00
2013-5-16,91,71,47,36,23,8,57,21,6,29.73,29.45,6,0,0,0.00
2013-5-17,91,72,47,37,23,9,52,19,7,29.72,29.45,6,0,0,0.00
2013-5-18,80,71,54,29,20,10,32,15,10,29.68,29.45,7,1,0,0.00
2013-5-19,77,66,54,40,29,17,55,27,11,29.68,29.52,13,2,0,0.00
2013-5-20,79,64,47,38,28,9,70,30,7,29.73,29.53,12,2,0,0.00
2013-5-21,84,65,45,39,30,20,63,33,10,29.84,29.53,8,0,0,0.00
2013-5-22,91,70,47,38,27,18,61,26,7,29.67,29.42,2,0,0,0.00
2013-5-23,95,72,48,32,24,16,53,21,7,29.67,29.44,4,0,0,0.00
2013-5-24,92,74,53,46,34,20,73,30,9,29.78,29.50,3,0,0,0.00
2013-5-25,95,74,48,37,26,9,54,22,5,29.80,29.47,5,0,0,0.00
2013-5-26,92,73,49,38,21,4,61,20,4,29.73,29.47,7,0,0,0.00
2013-5-27,87,68,49,38,22,7,54,22,5,29.71,29.45,7,1,0,0.00
2013-5-28,90,70,44,33,21,7,54,20,6,29.59,29.24,5,0,0,0.00
2013-5-29,84,72,59,41,23,7,48,18,6,29.40,29.25,10,1,0,0.00
2013-5-30,90,72,48,33,23,15,49,19,7,29.60,29.39,7,1,0,0.00
2013-5-31,89,75,57,42,25,3,47,20,6,29.59,29.45,11,2,0,0.00
2013-6-1,92,72,47,32,18,4,45,15,5,29.81,29.59,3,0,0,0.00
2013-6-2,90,75,61,45,35,27,43,25,15,29.82,29.48,4,0,0,0.00
2013-6-3,94,77,56,50,36,11,70,32,6,29.67,29.40,7,1,0,0.00
2013-6-4,98,79,52,40,24,12,55,17,5,29.65,29.42,5,0,0,0.00
2013-6-5,93,77,57,47,35,22,60,26,8,29.64,29.43,3,0,0,0.00
2013-6-6,94,75,54,46,38,25,65,31,10,29.70,29.49,4,0,0,0.00
2013-6-7,96,74,57,51,42,28,72,37,11,29.69,29.40,2,0,0,0.00
2013-6-8,98,79,58,49,35,20,59,27,7,29.60,29.34,7,1,0,0.00
2013-6-9,100,81,62,52,42,30,59,29,9,29.62,29.43,2,0,0,0.00
2013-6-10,105,85,61,55,41,24,69,28,7,29.65,29.40,5,0,0,0.00
2013-6-17,81,79,75,44,44,42,31,28,27,29.55,29.50,3,2,0,0.00
2013-6-18,95,80,66,52,47,38,60,33,14,29.75,29.43,5,0,0,0.00
2013-6-19,102,80,56,46,30,10,59,23,4,29.61,29.32,7,0,0,0.00
2013-6-20,100,77,54,46,25,2,55,20,3,29.63,29.39,2,0,0,0.00
2013-6-21,99,77,52,44,27,12,51,21,5,29.70,29.41,6,0,0,0.00
2013-6-22,96,77,53,38,23,10,50,18,5,29.66,29.41,7,1,0,0.00
2013-6-23,97,76,50,38,24,13,47,18,5,29.65,29.38,3,0,0,0.00
2013-6-24,98,78,56,44,23,6,48,17,4,29.62,29.42,3,0,0,0.00
2013-6-25,99,78,54,42,29,20,47,19,6,29.70,29.50,7,0,0,0.00
2013-6-26,104,80,55,45,36,27,62,25,7,29.75,29.53,2,0,0,0.00
2013-6-27,110,84,58,43,36,24,54,23,5,29.77,29.53,3,0,0,0.00
2013-6-28,102,86,74,50,43,32,38,23,13,29.81,29.55,7,1,0,0.00
2013-6-29,103,82,67,50,45,36,53,29,10,29.80,29.50,8,0,0,0.00
2013-6-30,102,80,64,51,46,40,58,33,12,29.76,29.45,6,0,0,0.00
2013-7-1,94,75,60,56,50,42,80,44,17,29.88,29.65,5,0,0,0.02
2013-7-2,92,75,61,54,48,39,63,41,19,29.90,29.62,4,0,0,0.00
2013-7-3,91,74,61,59,52,41,84,52,23,29.82,29.49,3,0,0,0.05
2013-7-4,96,78,58,57,51,43,86,45,16,29.66,29.46,6,0,0,0.01
2013-7-5,98,78,66,64,55,47,88,51,18,29.61,29.37,11,0,0,0.21
2013-7-6,96,76,65,63,55,46,88,54,19,29.68,29.41,6,0,0,0.02
2013-7-7,99,81,64,61,54,47,82,47,18,29.66,29.46,2,0,0,0.03
2013-7-8,99,80,70,60,54,49,71,44,19,29.82,29.53,8,0,0,0.00
2013-7-9,101,80,66,62,57,50,82,51,19,29.83,29.57,6,0,0,0.00
2013-7-10,100,83,68,58,53,47,68,38,17,29.78,29.53,6,0,0,0.00
2013-7-11,93,80,69,59,55,48,66,45,22,29.80,29.52,4,0,0,0.00
2013-7-12,96,79,65,60,56,49,80,48,23,29.68,29.54,3,0,0,0.00
2013-7-13,100,81,64,63,55,45,87,46,15,29.72,29.54,5,0,0,0.02
2013-7-14,101,80,66,64,55,46,86,49,16,29.73,29.41,11,0,0,0.36
2013-7-15,76,70,66,62,56,48,87,62,44,29.81,29.59,3,0,0,0.00
2013-7-16,87,73,62,52,48,43,69,43,24,29.88,29.69,5,0,0,0.00
2013-7-17,84,72,59,56,51,45,86,51,26,29.99,29.82,7,0,0,0.01
2013-7-18,90,75,61,54,52,49,74,48,26,29.92,29.68,2,0,0,0.00
2013-7-19,93,73,65,64,58,54,87,64,27,29.80,29.57,3,0,0,0.22
2013-7-20,93,77,66,60,57,50,80,53,27,29.74,29.48,4,0,0,0.04
2013-7-21,95,79,67,60,54,44,74,47,19,29.67,29.47,8,0,0,0.00
2013-7-22,98,81,64,58,53,45,77,43,17,29.67,29.47,2,0,0,0.00
2013-7-23,101,81,65,57,51,41,73,39,16,29.66,29.45,8,0,0,0.00
2013-7-24,95,73,66,66,56,51,83,58,23,29.83,29.55,2,0,0,0.29
2013-7-25,89,76,64,60,58,56,81,57,34,29.86,29.63,2,0,0,0.00
2013-7-26,92,74,60,61,58,54,89,64,30,30.00,29.69,8,1,0,1.13
2013-7-27,88,73,61,59,56,49,88,59,27,30.00,29.63,2,0,0,0.00
2013-7-28,90,76,66,62,58,48,81,58,25,29.65,29.48,5,0,0,0.01
2013-7-29,92,76,62,61,52,41,87,50,17,29.75,29.59,6,0,0,0.01
2013-7-30,98,79,60,56,50,44,79,42,16,29.87,29.70,4,0,0,0.00
2013-7-31,100,80,63,58,51,41,70,41,14,29.87,29.66,3,0,0,0.00
2013-8-1,93,76,68,64,56,51,83,53,27,29.84,29.65,6,0,0,0.02
2013-8-2,96,76,64,62,58,47,87,60,20,29.80,29.55,10,0,0,0.14
2013-8-3,95,76,63,61,57,51,86,57,23,29.83,29.60,1,0,0,0.00
2013-8-4,97,79,65,62,57,47,83,52,22,29.79,29.57,2,0,0,0.12
2013-8-5,94,74,65,64,58,54,79,61,26,29.84,29.56,3,0,0,0.08
2013-8-6,93,76,66,57,54,48,69,49,24,29.74,29.53,5,0,0,0.00
2013-8-7,86,72,60,57,53,48,83,55,27,29.77,29.61,5,1,0,0.00
2013-8-8,89,74,64,57,50,39,80,47,20,29.73,29.58,6,1,0,0.00
2013-8-9,92,77,63,51,45,37,58,35,16,29.80,29.64,6,0,0,0.00
2013-8-10,89,73,62,55,50,40,75,48,26,29.99,29.73,7,1,0,0.12
2013-8-11,88,72,61,56,53,47,81,56,25,30.00,29.72,3,0,0,0.00
2013-8-12,89,73,65,59,56,51,72,57,27,29.89,29.69,3,0,0,0.00
2013-8-13,91,74,62,58,53,41,81,51,21,29.86,29.68,1,0,0,0.00
2013-8-14,92,73,60,58,52,40,84,51,17,29.87,29.65,4,0,0,0.00
2013-8-15,96,75,59,56,51,36,83,50,15,29.87,29.64,1,0,0,0.00
2013-8-16,99,78,57,54,47,35,78,41,11,29.87,29.63,2,0,0,0.00
2013-8-17,101,82,70,53,47,37,48,31,11,29.78,29.54,6,0,0,0.01
2013-8-18,98,81,67,56,49,43,62,36,15,29.78,29.58,3,0,0,0.00
2013-8-19,99,80,64,56,50,44,70,39,15,29.78,29.51,2,0,0,0.01
2013-8-20,97,76,60,61,55,46,84,53,19,29.76,29.55,3,0,0,0.01
2013-8-21,94,77,62,57,53,47,82,49,23,29.81,29.61,3,0,0,0.00
2013-8-22,96,78,61,54,50,44,74,41,17,29.82,29.58,1,0,0,0.00
2013-8-23,91,79,62,50,47,44,54,34,20,29.79,29.62,3,0,0,0.00
2013-8-24,90,74,65,62,55,49,86,55,26,29.81,29.63,3,0,0,0.06
2013-8-25,90,74,64,62,59,53,89,64,29,29.93,29.75,7,0,0,0.02
2013-8-26,93,76,61,60,55,51,85,53,25,29.93,29.68,2,0,0,0.00
2013-8-27,93,76,60,55,52,48,77,48,22,29.84,29.62,2,0,0,0.00
2013-8-28,93,75,58,56,51,47,78,46,21,29.83,29.66,2,0,0,0.00
2013-8-29,91,77,67,58,55,50,68,49,26,29.85,29.70,4,0,0,0.00
2013-8-30,98,78,63,61,55,49,80,50,20,29.87,29.58,2,0,0,0.00
2013-8-31,100,79,61,58,52,44,76,45,15,29.77,29.49,2,0,0,0.00
2013-9-1,100,79,64,60,50,44,67,40,16,29.75,29.50,7,0,0,0.01
2013-9-2,95,79,67,59,54,50,72,46,22,29.81,29.58,2,0,0,0.00
2013-9-3,97,80,66,58,53,47,70,44,18,29.81,29.58,2,0,0,0.00
2013-9-4,97,79,64,55,47,32,68,37,17,29.86,29.66,3,0,0,0.00
2013-9-5,95,76,56,51,42,36,61,34,14,29.92,29.73,1,0,0,0.00
2013-9-6,95,74,55,50,39,-100,60,35,14,29.96,29.65,2,-10,0,0.00
2013-9-7,95,74,57,58,50,45,70,46,20,29.85,29.62,1,0,0,0.00
2013-9-8,94,75,57,51,48,45,73,43,18,29.79,29.49,6,0,0,0.00
2013-9-9,92,75,59,60,51,42,77,47,22,29.66,29.43,2,0,0,0.04
2013-9-10,74,66,62,62,58,54,90,78,51,29.80,29.55,2,0,0,0.57
2013-9-11,86,71,62,62,57,47,91,66,27,29.85,29.65,2,0,0,0.00
2013-9-12,74,66,60,63,59,56,88,78,63,29.84,29.71,2,0,0,0.32
2013-9-13,77,65,60,61,58,53,91,80,44,29.83,29.64,2,0,0,0.28
2013-9-14,78,66,59,61,58,53,91,77,44,29.80,29.61,3,0,0,0.93
2013-9-15,84,67,56,57,54,45,91,67,27,29.84,29.69,2,0,0,0.22
2013-9-16,84,68,55,56,53,49,88,64,31,29.95,29.75,5,0,0,0.00
2013-9-17,85,70,57,58,55,49,90,63,29,29.88,29.61,3,0,0,0.00
2013-9-18,87,71,61,59,56,48,87,62,26,29.70,29.51,5,0,0,0.00
2013-9-19,88,70,58,60,55,46,89,62,24,29.73,29.52,4,0,0,0.09
2013-9-20,86,69,55,53,50,45,80,54,24,29.84,29.61,7,0,0,0.00
2013-9-21,84,69,55,56,52,46,87,59,27,29.83,29.58,5,0,0,0.00
2013-9-22,82,66,53,57,51,45,88,63,28,29.65,29.30,4,0,0,0.09
2013-9-23,75,61,45,44,35,29,80,43,19,29.85,29.52,10,1,0,0.00
2013-9-24,82,61,44,46,41,36,85,54,19,30.00,29.73,2,0,0,0.00
2013-9-25,87,64,45,46,43,35,85,53,18,29.82,29.41,3,0,0,0.00
2013-9-26,86,67,47,46,40,32,83,44,15,29.67,29.41,6,0,0,0.00
2013-9-27,72,58,45,49,41,31,73,55,35,29.85,29.46,8,1,0,0.00
2013-9-28,75,53,35,37,29,18,82,47,12,30.15,29.86,3,0,0,0.00
2013-9-29,81,56,36,39,30,19,79,46,12,30.19,29.83,3,0,0,0.00
2013-9-30,87,61,41,39,33,24,80,44,11,29.96,29.62,3,0,0,0.00
2013-10-1,89,62,40,40,34,19,83,44,8,29.92,29.63,1,0,0,0.00
2013-10-2,84,60,39,42,35,23,83,49,11,29.94,29.64,7,0,0,0.00
2013-10-3,82,60,41,40,35,23,83,48,12,29.83,29.49,2,0,0,0.00
2013-10-4,66,56,48,39,20,7,72,28,12,29.95,29.52,13,2,0,0.00
2013-10-5,64,52,37,25,18,13,54,29,14,30.17,29.94,7,1,0,0.00
2013-10-6,76,52,33,36,27,20,74,45,13,30.28,30.01,2,0,0,0.00
2013-10-7,80,54,34,37,28,22,74,45,13,30.25,29.89,6,0,0,0.00
2013-10-8,83,58,39,39,33,29,76,45,16,29.98,29.61,1,0,0,0.00
2013-10-9,80,60,40,40,33,27,77,43,15,29.81,29.59,3,0,0,0.00
2013-10-10,72,52,40,47,37,26,85,60,27,29.83,29.48,10,1,0,0.10
2013-10-11,68,48,31,34,30,27,88,57,23,30.00,29.81,5,0,0,0.01
2013-10-12,74,52,34,41,34,30,86,55,22,30.13,29.84,2,0,0,0.00
2013-10-13,80,60,41,45,39,34,87,52,20,30.04,29.66,5,0,0,0.00
2013-10-14,72,58,43,44,29,15,80,39,15,29.87,29.67,5,1,0,0.00
2013-10-15,70,51,32,31,28,22,80,45,22,30.01,29.78,6,1,0,0.00
2013-10-16,66,52,40,34,27,15,61,41,16,30.01,29.78,5,0,0,0.00
2013-10-17,69,47,29,31,23,17,81,45,14,30.16,29.82,5,0,0,0.00
2013-10-18,66,48,29,29,19,9,83,42,12,30.07,29.81,8,1,0,0.00
2013-10-19,70,48,29,32,24,16,79,47,13,30.19,29.90,3,0,0,0.00
2013-10-20,75,51,30,30,21,9,81,40,10,30.06,29.69,7,0,0,0.00
2013-10-21,69,50,35,35,29,22,75,48,19,30.07,29.77,2,0,0,0.00
2013-10-22,74,48,30,32,27,19,83,52,13,30.29,30.01,2,0,0,0.00
2013-10-23,75,50,31,36,28,21,74,48,18,30.24,29.91,1,0,0,0.00
2013-10-24,79,57,34,49,33,25,84,48,16,30.12,29.86,3,0,0,0.07
2013-10-25,70,55,45,47,43,38,84,67,36,30.08,29.87,7,1,0,0.04
2013-10-26,71,51,37,44,38,33,91,66,26,30.24,30.01,1,0,0,0.00
2013-10-27,72,51,35,40,36,31,90,62,24,30.14,29.74,3,0,0,0.00
2013-10-28,74,53,39,40,33,24,86,53,18,29.86,29.63,1,0,0,0.00
2013-10-29,72,56,38,32,27,23,70,37,16,29.93,29.62,7,1,0,0.00
2013-10-30,64,50,38,46,32,23,80,52,27,29.87,29.63,5,0,0,0.04
2013-10-31,58,44,30,30,25,19,84,53,24,30.12,29.84,10,1,0,0.01
2013-11-1,64,48,31,28,24,21,78,44,20,30.17,29.93,12,1,0,0.00
2013-11-2,67,46,28,34,26,23,84,52,19,30.31,29.93,3,0,0,0.00
2013-11-3,70,52,38,38,30,24,68,47,20,29.92,29.55,5,0,0,0.00
2013-11-4,70,51,32,41,34,28,85,57,25,29.87,29.57,5,0,0,0.00
2013-11-5,55,45,29,43,31,14,86,59,36,30.21,29.56,10,1,0,0.08
2013-11-6,57,40,23,20,15,10,76,42,16,30.47,30.20,3,0,0,0.00
2013-11-7,64,41,24,25,21,18,83,52,18,30.54,30.19,3,0,0,0.00
2013-11-8,65,42,24,28,23,18,87,54,20,30.31,29.95,2,0,0,0.00
2013-11-9,73,46,26,30,24,20,86,52,15,30.25,29.96,1,0,0,0.00
2013-11-10,71,47,29,29,24,21,79,49,15,30.34,30.05,1,0,0,0.00
2013-11-11,72,48,32,28,24,20,72,45,14,30.31,30.03,4,0,0,0.00
2013-11-12,62,45,30,34,29,23,84,56,30,30.53,30.18,3,0,0,0.00
2013-11-13,58,43,32,36,33,27,88,69,42,30.48,30.05,2,0,0,0.00
2013-11-14,64,44,31,39,32,26,89,67,30,30.10,29.84,2,0,0,0.00
2013-11-15,62,44,28,45,32,23,88,67,32,29.95,29.58,5,0,0,0.09
2013-11-16,63,50,40,43,35,27,88,61,28,29.69,29.46,6,0,0,0.01
2013-11-17,63,48,33,31,29,26,77,51,27,30.08,29.67,7,0,0,0.00
2013-11-18,61,41,30,31,28,25,85,64,28,30.25,30.02,0,0,0,0.00
2013-11-19,66,43,27,35,29,23,89,63,27,30.15,29.75,3,0,0,0.00
2013-11-20,49,42,34,43,37,29,90,82,57,29.91,29.74,1,0,0,0.16
2013-11-21,56,46,40,45,41,37,91,83,64,29.98,29.83,3,0,0,0.21
2013-11-22,44,38,34,41,29,24,89,72,60,30.34,29.95,6,1,0,0.05
2013-11-23,40,36,30,32,26,17,86,69,53,30.42,30.25,3,0,0,0.06
2013-11-24,33,30,26,23,21,18,81,69,58,30.38,30.15,3,0,0,0.06
2013-11-25,49,35,28,28,26,23,84,69,44,30.36,30.08,6,1,0,0.02
2013-11-26,52,34,23,28,24,19,87,70,39,30.50,30.33,2,0,0,0.00
2013-11-27,50,34,22,27,24,18,87,69,38,30.50,30.18,2,0,0,0.00
2013-11-28,53,35,25,24,22,20,86,64,29,30.32,30.14,1,0,0,0.00
2013-11-29,58,37,23,28,24,19,87,65,28,30.45,30.18,3,0,0,0.00
2013-11-30,61,40,26,32,28,22,88,66,31,30.41,30.10,2,0,0,0.00
2013-12-1,51,38,29,31,28,24,86,68,43,30.34,30.14,7,0,0,0.00
2013-12-2,57,40,29,28,25,23,79,59,31,30.18,29.83,5,0,0,0.00
2013-12-3,67,42,25,29,20,10,87,51,11,29.88,29.48,7,0,0,0.00
2013-12-4,61,43,31,31,23,18,65,48,19,29.79,29.44,10,1,0,0.00
2013-12-5,38,29,16,30,22,9,87,76,52,30.10,29.67,3,0,0,0.01
2013-12-6,38,23,11,20,12,5,80,65,36,30.33,30.11,1,0,0,0.11
2013-12-7,31,26,17,25,17,9,84,71,65,30.23,29.89,2,0,0,0.00
2013-12-8,38,30,24,25,14,7,83,54,38,30.07,29.82,11,1,0,0.00
2013-12-9,33,26,16,14,5,-3,64,44,23,30.58,30.03,8,2,0,0.01
2013-12-10,38,22,11,7,2,-2,67,45,21,30.65,30.35,2,0,0,0.00
2013-12-11,46,26,11,15,9,4,77,55,22,30.66,30.41,4,0,0,0.00
2013-12-12,45,30,17,20,14,10,78,54,28,30.61,30.14,3,0,0,0.00
2013-12-13,50,37,30,29,23,17,71,57,42,30.15,29.88,12,1,0,0.00
2013-12-14,50,35,22,19,16,12,73,47,23,30.49,30.05,12,1,0,0.00
2013-12-15,51,33,20,19,16,14,78,53,25,30.53,30.25,7,1,0,0.00
2013-12-16,59,37,20,22,18,15,84,52,22,30.52,30.22,7,0,0,0.00
2013-12-17,60,37,22,23,19,16,82,53,20,30.50,30.23,2,0,0,0.00
2013-12-18,57,36,23,24,20,16,80,57,24,30.30,29.89,2,0,0,0.00
2013-12-19,60,38,24,24,21,18,81,54,22,29.90,29.56,3,0,0,0.00
2013-12-20,57,39,27,30,22,17,72,55,22,29.82,29.49,3,0,0,0.00
2013-12-21,45,38,33,32,26,22,85,61,43,29.77,29.43,11,1,0,0.00
2013-12-22,48,35,23,23,16,9,75,50,23,30.31,29.77,3,0,0,0.00
2013-12-23,51,33,21,19,16,13,74,53,25,30.56,30.30,3,0,0,0.00
2013-12-24,53,34,19,22,18,14,85,56,27,30.50,30.15,4,0,0,0.00
2013-12-25,50,34,21,22,16,11,80,51,24,30.51,30.21,3,0,0,0.00
2013-12-26,53,31,16,16,13,7,80,53,21,30.58,30.24,2,0,0,0.00
2013-12-27,57,33,18,15,12,9,74,48,16,30.52,30.22,5,0,0,0.00
2013-12-28,50,31,16,19,14,11,81,54,22,30.31,29.92,3,0,0,0.00
2013-12-29,51,36,24,22,19,16,74,52,28,30.23,29.89,5,0,0,0.00
2013-12-30,54,34,20,17,11,4,78,45,15,30.43,30.17,11,0,0,0.00
2013-12-31,54,32,17,16,13,10,76,49,20,30.47,30.14,3,0,0,0.00
2014-1-1,57,37,20,21,14,12,77,46,17,30.29,30.07,11,1,0,0.00
2014-1-2,55,33,18,21,14,9,81,50,16,30.46,30.21,2,0,0,0.00